Hourly Data Report for September 15, 2017

All times are specified in Local Standard Time (LST). Add 1 hour to adjust for Daylight Saving Time where and when it is observed.

WOODSTOCK NEWBRIDGE
NEW BRUNSWICK

46°09'08.000" N
67°32'34.000" W
154.00 m
8105603
71606
EWD

Download Data

Hourly Data (September 2017)
Hourly Data Report for September 15, 2017
Temp Definition
°C
Dew Point Temp Definition
°C
Rel Hum Definition
%
Wind Dir Definition
10's deg

Wind Spd Definition
km/h
Visibility Definition
km
Stn Press Definition
kPa
Hmdx Definition


Wind Chill Definition


Weather Definition


TIME
00:00 15.2 12.3 83 31 2   99.65     LegendNANA
01:00 15.2 7.6 60 32 3   99.72     LegendNANA
02:00 14.0 6.2 59 32 4   99.80     LegendNANA
03:00 12.7 7.0 68 32 5   99.84     LegendNANA
04:00 11.6 6.9 73 32 4   99.90     LegendNANA
05:00 8.6 6.8 89   0   99.97     LegendNANA
06:00 7.5 6.5 93 32 2   100.06     LegendNANA
07:00 8.7 7.8 94   0   100.12     LegendNANA
08:00 12.7 8.3 75 0 1   100.20     LegendNANA
09:00 14.8 9.5 70 33 2   100.27     LegendNANA
10:00 17.3 9.8 61 2 4   100.33     LegendNANA
11:00 19.9 7.2 44 10 5   100.30     LegendNANA
12:00 21.1 7.7 42 8 1   100.26     LegendNANA
13:00 22.9 10.0 44 21 3   100.22     LegendNANA
14:00 23.3 9.4 41 25 6   100.17     LegendNANA
15:00 23.9 10.0 41 26 6   100.16 25   LegendNANA
16:00 24.0 10.5 42 26 5   100.17 26   LegendNANA
17:00 23.8 11.3 45 26 1   100.20 26   LegendNANA
18:00 20.8 12.3 58   0   100.19     LegendNANA
19:00 16.7 11.8 73   0   100.23     LegendNANA
20:00 14.3 11.7 84   0   100.25     LegendNANA
21:00 12.7 10.7 88 0 1   100.25     LegendNANA
22:00 11.8 10.4 91   0   100.26     LegendNANA
23:00 11.0 10.0 94   0   100.25     LegendNANA

Notes on Data Quality.

Legend

  • E = Estimated
  • M = Missing
  • NA = Not Available
  • ‡ = Partner data that is not subject to review by the National Climate Archives
Date modified: